Wind_Speed
18 17 15 11 10 10 12 14 15 16 17 17 18 20 21 20 19 17 14 10 7 8 12 15 17 18 20 21 23 25 26 26 26 26 26 27 28 30 31 33 33 34 34 36 37 40 42 43 43 42 42 42 43 43 44 45 46 47 48 49 50 51 52 53 54 55 56 57 58 59 60 61 62 62 63 65 66 67 67 67 67 68 68 69 69
17 15 14 14 12 13 14 16 17 17 17 17 19 22 22 21 20 18 16 14 13 13 16 19 21 23 24 25 27 28 28 28 28 28 29 30 31 33 36 37 37 37 38 39 40 42 44 45 44 44 44 43 44 45 46 47 48 49 51 52 53 54 55 57 58 59 60 61 62 62 63 64 65 65 66 67 68 69 69 70 70 71 72 74 74
15 13 14 17 17 16 17 18 18 18 17 18 20 21 21 21 21 18 17 16 16 18 21 23 26 27 27 28 29 30 30 31 31 30 31 33 35 37 39 39 40 40 40 40 42 43 45 46 45 45 46 46 46 46 47 48 50 51 52 54 55 56 58 59 61 62 63 64 65 66 66 67 68 68 68 69 70 71 72 73 74 76 77 78 78
15 13 13 15 15 14 14 15 16 17 18 20 22 23 22 22 22 21 20 20 21 23 25 27 28 29 29 29 30 31 32 33 32 33 35 37 39 39 39 40 41 41 41 41 42 44 46 46 46 47 48 48 49 49 50 51 51 52 53 54 56 57 58 60 62 63 64 65 66 66 66 67 68 69 70 71 72 73 74 75 76 78 79 80 80
15 15 14 13 12 11 12 14 16 18 20 23 24 24 23 24 24 24 24 24 26 28 28 29 29 30 30 31 32 33 34 34 35 37 39 41 41 40 40 41 42 42 42 42 44 46 47 47 48 49 50 51 51 51 52 52 53 54 54 55 57 58 59 61 62 64 65 66 67 67 67 67 69 71 72 73 74 75 75 76 77 78 80 81 83
16 16 15 13 12 12 13 14 16 19 21 24 25 24 23 23 24 25 26 27 29 30 30 31 31 32 33 33 34 34 35 35 37 39 41 43 43 42 41 42 43 43 43 44 46 47 48 49 50 51 52 52 52 53 53 53 54 55 56 57 58 60 61 63 64 65 66 68 69 69 69 69 71 73 74 75 76 77 77 78 78 79 80 81 82
18 16 15 14 14 15 15 16 18 20 22 24 24 23 23 23 22 23 25 28 30 31 32 32 32 33 34 35 35 35 36 38 40 42 44 45 44 43 43 43 44 44 46 47 48 49 49 51 52 53 53 53 54 54 55 56 56 57 58 59 61 62 64 65 66 67 68 69 70 70 71 72 73 75 76 76 76 76 76 76 76 76 76 76 75
20 18 18 17 16 17 17 18 19 19 21 22 22 22 23 22 20 23 26 29 30 32 32 32 33 34 35 36 36 37 38 40 43 45 46 46 45 45 45 45 46 48 49 49 50 50 51 51 52 52 52 53 54 55 56 57 59 60 61 62 63 65 65 66 66 67 68 69 70 71 72 73 73 73 73 72 72 71 71 71 70 69 69 68 68
21 20 20 20 20 19 20 20 19 19 20 20 21 22 23 24 26 29 31 30 31 33 34 34 34 35 37 38 39 40 41 43 46 47 48 47 47 46 46 47 48 49 50 50 50 50 50 50 51 51 52 53 54 56 58 60 61 62 64 64 64 64 64 65 65 66 67 68 68 68 68 67 67 66 66 65 65 65 65 65 64 63 63 62 62
23 23 22 22 23 23 23 22 22 23 23 22 22 24 27 31 33 32 30 29 32 34 35 36 37 38 40 41 41 42 44 47 48 48 48 47 47 46 47 47 48 48 47 47 47 48 48 48 50 51 53 55 57 60 62 64 64 65 65 65 65 64 65 65 65 65 64 63 62 61 61 60 60 59 60 60 61 61 61 61 60 59 58 57 56
21 22 22 23 24 25 26 26 26 27 27 26 27 28 31 33 33 31 30 31 34 35 36 38 39 40 42 43 45 46 47 48 48 47 46 46 45 44 44 44 44 44 45 45 46 47 48 49 51 54 56 58 60 63 65 67 67 67 66 66 65 65 64 63 61 59 58 56 56 55 55 55 55 55 55 56 56 57 57 57 56 55 55 53 52
19 20 22 23 24 26 26 27 28 28 28 28 28 28 29 31 31 31 32 35 38 38 37 38 39 42 44 45 46 46 46 45 45 43 42 41 40 40 41 41 42 43 45 46 47 49 50 52 54 57 59 61 62 64 65 66 66 65 64 63 62 61 60 58 57 55 54 53 52 52 51 51 51 51 52 52 52 52 53 52 52 52 51 49 48
19 20 21 22 23 24 25 26 27 27 28 28 26 25 26 28 30 31 35 39 41 39 38 39 41 42 42 42 42 42 41 39 37 36 35 36 36 38 39 41 43 45 46 48 49 51 53 55 57 59 60 62 62 62 63 63 62 62 62 61 60 59 58 56 55 53 51 50 49 48 47 46 47 47 47 48 48 49 49 49 48 48 47 46 45
18 18 20 21 21 22 23 25 26 27 29 28 25 24 25 28 32 36 40 42 40 38 40 41 39 37 37 36 35 34 32 30 30 31 32 34 36 38 41 43 45 46 47 48 49 51 53 56 59 60 60 60 60 61 62 63 63 63 62 61 59 57 55 53 51 50 48 46 45 44 43 43 42 43 43 43 44 44 45 45 44 43 43 43 43
18 19 20 21 22 22 23 24 26 26 27 27 26 27 29 32 36 39 40 40 39 40 40 38 34 32 31 28 26 25 26 28 30 32 34 37 39 41 44 46 47 48 48 49 49 51 54 57 59 59 60 61 62 63 63 64 63 62 61 59 56 53 50 48 47 45 43 42 41 40 40 39 39 39 39 39 39 40 40 40 41 40 40 40 40
18 19 21 21 22 23 23 24 25 25 26 28 28 28 30 33 35 36 36 38 39 38 35 31 28 24 21 20 21 25 30 33 35 36 38 40 42 44 46 48 49 50 50 50 52 55 57 57 57 58 60 61 62 62 62 62 60 59 56 54 51 47 44 43 42 40 39 37 36 36 36 36 35 35 35 35 34 35 35 36 37 37 36 35 35
21 22 23 23 23 23 24 24 25 25 28 29 28 28 30 31 31 31 32 33 33 30 25 21 18 17 17 19 24 30 35 38 40 41 41 42 43 45 47 49 51 52 53 53 55 57 58 57 58 59 60 60 60 60 59 58 56 53 51 48 45 42 40 38 36 34 33 32 31 31 31 31 31 30 30 29 29 29 30 31 32 32 31 30 29
24 24 24 24 24 24 25 26 26 27 29 29 30 30 28 24 22 22 23 23 21 18 15 14 15 17 19 23 28 34 38 41 43 44 44 44 45 46 48 51 53 54 55 56 57 57 58 59 60 60 59 59 59 58 56 53 51 48 46 43 40 37 35 32 30 28 27 27 27 27 26 25 25 25 24 24 24 24 24 26 26 26 25 25 25
25 25 25 26 26 26 27 28 29 29 29 29 28 23 17 12 12 13 14 14 13 12 12 14 18 21 24 27 32 37 40 43 44 45 45 45 45 47 50 52 54 55 57 58 58 59 59 60 61 60 59 58 57 55 53 49 46 44 41 38 35 32 29 27 24 23 23 22 22 21 21 20 19 19 20 20 20 20 20 21 21 21 21 21 21
26 27 27 28 28 28 29 30 30 29 28 26 20 13 7 7 8 10 11 11 10 11 15 20 23 25 28 31 35 38 42 44 45 46 46 46 46 47 50 53 55 56 58 59 60 61 61 61 61 59 58 56 55 53 50 47 44 41 39 35 32 28 25 23 21 20 19 18 18 17 16 15 15 14 15 15 15 15 16 16 16 16 16 17 17
27 28 28 28 28 28 28 27 26 25 22 17 11 6 4 6 7 9 10 9 10 15 22 25 27 29 32 34 36 40 44 45 45 46 46 46 46 48 50 53 55 57 58 60 61 61 62 62 60 58 57 55 53 51 48 46 44 41 37 34 30 26 23 21 19 18 17 16 15 15 14 13 11 10 10 10 10 11 11 12 12 12 13 14 15
26 26 26 26 25 25 24 23 21 17 11 7 4 3 4 5 6 8 9 11 15 22 26 27 29 32 33 34 39 43 45 45 45 45 46 46 46 48 51 53 55 57 58 60 61 61 62 61 59 58 57 55 52 49 47 46 44 41 37 34 30 26 23 21 19 18 17 15 15 14 13 11 10 8 8 8 8 8 9 9 10 11 11 11 12
23 23 22 22 21 20 19 17 14 10 5 3 4 4 4 6 8 11 12 15 20 25 27 28 30 32 33 37 42 45 45 44 44 44 44 45 46 48 51 53 55 57 58 60 60 61 61 60 59 58 57 55 53 50 47 47 45 42 38 34 31 27 24 22 20 18 17 16 15 13 12 11 10 9 8 7 7 7 7 8 8 9 9 8 9
20 19 18 17 16 15 14 12 11 8 6 6 8 8 9 11 13 15 16 19 23 25 26 27 30 33 36 41 44 44 44 44 43 43 43 44 45 48 51 53 54 56 58 59 59 60 60 59 59 58 57 55 54 52 49 48 46 42 39 35 32 29 25 23 21 19 18 16 15 13 12 11 10 9 8 8 7 7 6 6 6 7 6 6 6
16 15 15 15 14 13 12 11 10 10 10 11 12 14 15 16 18 19 21 22 23 23 24 27 31 36 40 43 43 43 43 43 42 42 42 43 45 48 50 51 53 55 57 58 59 59 59 58 58 58 57 56 54 53 51 49 47 44 40 37 34 30 27 24 22 20 18 16 15 13 12 11 10 9 9 8 8 7 6 4 3 4 4 3 3
14 13 14 14 14 14 13 12 12 13 14 15 16 17 18 19 20 21 22 23 24 25 28 31 35 39 40 40 41 42 42 41 41 41 41 43 45 47 49 50 52 55 57 58 58 58 57 57 57 57 57 55 54 52 51 50 47 44 41 38 35 31 28 24 22 20 18 16 15 13 12 11 10 10 10 9 8 7 6 4 2 2 2 2 2
14 14 14 13 13 13 12 12 13 15 16 18 18 19 20 21 21 22 23 26 29 32 34 35 37 37 37 38 40 40 40 39 39 40 40 42 44 46 47 49 51 54 55 56 56 55 55 56 56 56 56 55 53 52 51 50 47 44 41 38 35 32 29 25 22 19 17 16 15 14 12 11 11 11 10 10 9 8 7 5 5 4 4 4 5
14 15 15 15 14 15 14 14 14 15 17 19 20 21 21 22 23 25 29 32 34 35 35 35 34 33 34 37 38 38 37 38 39 38 40 42 43 44 45 47 50 52 53 53 53 53 53 54 55 54 54 54 53 52 51 50 48 45 42 39 36 33 30 26 22 19 17 16 15 13 12 12 12 11 10 10 10 9 8 8 7 7 6 6 7
13 15 16 16 17 17 17 17 16 17 18 19 21 23 24 26 28 30 32 33 33 32 32 31 30 31 34 36 35 35 36 37 37 38 39 41 42 42 44 46 49 51 51 51 51 50 51 52 53 53 53 53 53 53 52 50 49 47 44 41 38 34 31 27 23 19 17 15 15 14 13 12 12 11 11 11 11 10 9 10 9 9 8 7 7
12 13 15 17 18 19 19 19 19 20 20 21 22 24 25 27 28 29 29 29 28 28 28 28 30 33 34 34 34 35 36 35 36 37 38 39 40 41 42 45 48 49 49 50 49 48 49 51 51 51 52 52 53 53 52 52 51 49 46 43 40 36 32 28 24 20 17 15 14 14 13 13 13 12 12 12 12 11 10 11 11 10 9 8 8
12 12 13 14 15 17 18 18 19 20 21 21 22 22 23 24 25 26 26 26 26 27 28 30 32 33 33 33 34 34 34 34 34 35 36 37 38 39 41 44 47 48 48 48 47 46 48 49 49 50 50 51 52 53 53 53 52 51 49 46 43 39 34 29 24 20 17 15 14 14 14 14 13 13 13 13 13 11 11 11 11 10 10 9 9
16 15 14 14 14 15 15 16 17 18 19 19 20 20 21 22 23 23 24 25 26 28 30 31 32 31 31 32 32 32 32 32 33 34 35 36 36 37 40 43 46 47 46 46 45 45 46 47 47 48 49 50 52 52 53 53 53 52 51 49 46 41 36 30 25 21 18 15 15 15 14 14 14 13 13 13 13 12 11 11 10 10 10 10 11
19 18 17 17 17 16 16 16 16 17 18 18 18 19 20 21 21 22 23 24 26 27 28 29 29 29 30 30 30 30 31 31 31 32 33 34 34 36 39 42 45 46 45 44 43 43 44 45 46 46 48 50 51 52 53 54 54 53 52 50 48 44 38 33 28 23 20 17 16 15 15 15 14 13 13 12 12 12 12 11 11 11 11 11 11
21 21 20 20 19 19 18 18 18 18 19 19 20 20 21 22 22 22 23 24 25 25 26 27 27 27 27 28 28 29 29 30 30 31 31 32 33 35 37 41 44 45 43 42 41 41 42 43 44 45 47 49 50 52 54 55 55 55 53 52 50 46 41 36 31 27 23 20 18 17 16 15 15 14 13 12 12 12 12 11 11 11 11 11 11
21 21 21 21 21 20 19 19 19 19 19 19 20 21 21 22 22 22 22 23 23 24 24 24 25 25 25 26 27 28 28 29 29 29 30 31 32 34 36 40 43 43 42 41 40 39 40 41 42 43 46 48 50 52 54 55 56 55 55 53 52 49 45 40 36 31 27 23 20 18 17 16 15 14 13 12 12 11 11 11 11 10 10 10 11
22 22 21 21 21 20 19 18 18 18 18 18 19 19 19 20 21 21 22 21 22 22 22 22 22 23 24 25 25 27 28 28 28 28 28 29 31 33 35 38 42 42 41 39 38 37 38 38 40 41 44 46 49 52 54 56 56 56 55 54 53 51 49 46 41 37 32 27 23 20 19 17 16 15 13 12 11 11 10 10 10 9 9 10 10
23 23 22 21 20 20 19 18 18 17 17 17 18 18 18 19 19 20 20 20 20 20 20 20 21 22 23 24 25 26 27 27 28 28 28 28 30 31 33 37 40 41 39 37 36 35 35 36 37 40 42 45 48 51 53 56 57 57 57 55 54 53 51 50 47 43 38 33 28 24 21 19 17 16 14 13 12 10 9 9 9 9 9 9 10
23 23 22 21 19 19 18 18 17 17 17 17 17 17 17 18 17 18 18 18 18 18 18 19 20 22 23 23 24 25 26 27 27 27 27 27 28 30 31 35 39 40 38 36 34 33 33 34 35 37 40 43 46 49 52 54 56 58 58 58 56 54 53 52 50 48 45 40 35 30 26 22 20 18 16 15 13 11 9 8 7 8 8 9 10
21 21 22 21 19 18 17 17 17 17 17 17 17 16 16 16 16 15 15 16 17 17 18 19 20 21 22 23 24 24 25 26 27 26 26 27 27 28 30 33 37 39 37 34 32 31 31 31 32 35 37 40 43 46 49 52 55 57 58 59 58 57 55 53 52 51 50 47 44 39 34 29 25 22 19 17 15 13 11 9 7 5 6 8 9
21 21 21 20 20 19 18 17 18 18 19 19 18 17 16 15 14 14 14 14 16 17 18 18 19 20 21 23 24 24 25 25 26 26 26 26 26 28 29 31 35 37 36 33 30 29 28 29 30 32 35 37 40 44 46 49 52 54 57 58 59 59 57 56 54 53 52 50 49 47 43 40 36 31 27 23 20 16 14 11 9 6 4 4 7
21 21 21 20 20 20 19 19 19 20 20 20 20 19 17 15 14 13 14 15 16 17 16 17 17 19 21 23 24 25 25 25 25 26 26 25 25 26 27 29 33 35 35 32 29 27 26 26 27 29 32 34 37 41 43 46 49 51 53 55 57 59 59 58 57 56 54 53 51 50 48 46 44 41 38 34 30 25 20 16 12 8 5 2 2
21 21 21 21 20 20 20 21 21 21 21 21 20 20 19 17 15 14 14 16 16 15 14 15 17 19 21 23 24 26 26 26 26 26 26 25 24 25 26 28 30 33 34 32 28 25 24 24 25 27 29 32 35 37 40 43 45 48 50 52 54 56 57 58 58 58 58 57 56 54 52 50 48 46 44 42 39 36 31 26 21 15 10 6 2
22 22 22 22 22 21 21 21 21 21 21 20 20 20 20 19 17 15 15 15 14 13 14 16 17 19 21 23 23 24 25 26 26 26 26 26 24 24 25 26 28 31 33 31 27 24 22 22 23 24 27 29 32 35 37 40 42 44 46 48 50 52 53 55 56 57 58 59 59 58 57 56 54 51 49 47 45 43 40 37 32 27 21 15 9
24 24 24 24 23 23 22 22 21 21 21 20 19 20 20 20 18 17 15 14 12 12 14 15 16 18 20 21 21 21 22 24 26 27 27 26 25 24 23 24 26 28 31 30 27 23 20 20 20 22 24 27 29 32 34 37 39 41 43 44 46 48 50 51 52 54 55 56 58 58 59 59 58 57 56 54 51 49 47 44 41 38 33 27 21
25 25 25 25 25 24 23 22 22 21 21 20 19 19 19 19 19 17 16 15 13 13 13 14 15 17 19 19 19 19 21 23 25 27 27 27 26 24 23 23 24 26 28 29 27 23 19 18 18 19 22 24 26 29 31 33 35 38 40 41 43 44 46 48 49 50 52 53 54 55 56 57 58 58 58 58 58 56 54 51 49 46 42 38 33
26 26 27 26 26 26 25 24 22 21 21 20 20 19 19 19 18 18 17 16 16 15 15 16 16 17 18 19 20 21 21 22 24 26 27 28 27 25 23 22 22 23 25 27 26 23 19 17 16 17 19 21 24 26 28 30 32 34 36 38 40 41 43 44 46 47 49 50 51 53 54 55 56 57 57 58 59 60 59 59 57 54 51 48 44
27 28 28 28 28 27 27 25 24 22 21 21 20 20 19 18 18 18 18 18 18 18 18 18 18 17 18 20 22 22 22 22 24 25 27 27 28 26 24 22 21 22 23 25 25 23 19 16 14 14 16 19 21 23 24 26 28 30 32 35 36 38 40 41 42 44 45 47 48 50 51 53 54 55 56 57 58 59 60 60 61 60 59 56 53
29 29 29 29 29 29 28 27 26 24 23 22 22 21 21 20 19 18 18 19 19 20 20 20 20 19 19 20 22 22 22 22 24 26 28 28 27 27 25 22 21 20 21 22 24 23 19 16 13 12 13 15 18 20 21 23 25 27 29 31 33 35 36 38 39 40 41 43 44 46 48 50 51 53 54 55 56 57 58 59 60 60 61 61 59
31 31 31 31 30 30 29 28 27 26 25 25 24 23 22 21 21 20 20 21 21 22 22 22 22 21 21 21 21 21 21 22 23 25 27 28 28 27 25 23 21 20 20 20 21 22 20 16 12 10 11 12 15 17 18 20 22 23 25 27 29 31 32 34 35 37 38 39 41 42 44 46 47 49 51 52 53 55 56 58 59 60 60 61 61
33 32 32 32 32 31 31 30 28 27 26 26 26 25 25 23 23 22 22 22 23 24 24 24 24 24 24 23 22 20 20 21 23 24 26 27 29 28 25 23 22 21 20 19 19 20 20 17 13 10 9 10 12 13 15 16 18 20 21 23 25 27 29 30 32 33 34 36 37 39 40 42 43 45 47 48 50 52 53 55 57 58 60 60 61
33 33 33 33 33 33 32 31 30 29 28 28 27 27 27 26 25 24 24 24 25 26 27 26 26 27 27 26 25 23 22 23 23 24 25 27 28 28 26 24 22 22 21 20 19 18 19 17 14 11 9 9 9 10 12 13 14 16 17 19 21 23 25 27 28 30 31 33 34 35 37 38 39 41 43 44 46 48 50 52 53 55 57 58 60
Wind_Direction
280 272 246 244 268 281 289 291 293 302 310 316 323 331 335 339 345 344 333 323 328 341 343 342 341 339 335 333 333 334 334 333 330 327 326 324 321 319 317 315 312 309 306 304 303 303 302 301 298 294 291 288 285 284 282 280 278 276 275 273 272 271 269 269 269 268 267 266 266 266 266 267 267 267 267 267 268 268 268 268 268 267 267 266 265
281 271 245 242 265 285 293 293 292 296 305 314 322 330 333 333 338 339 330 318 310 313 320 325 328 329 328 328 328 328 327 325 323 321 320 318 316 315 313 312 311 308 305 304 303 304 304 303 300 297 294 290 286 283 281 279 278 277 276 274 273 272 271 271 270 270 269 268 267 266 266 266 266 267 267 268 268 268 268 268 268 268 267 267 266
269 264 250 247 259 277 287 291 291 292 298 307 316 322 323 322 324 327 327 321 314 311 312 315 319 321 324 325 325 323 320 318 318 317 316 314 312 311 310 310 308 306 303 301 301 302 302 301 300 298 296 292 289 286 283 281 279 278 277 276 275 275 274 273 272 271 270 269 268 267 266 266 266 266 266 266 266 267 267 267 267 267 267 267 266
259 257 254 251 258 273 284 288 290 290 295 303 308 311 312 313 314 315 318 318 316 317 316 316 317 319 321 321 320 318 315 314 315 314 314 313 311 309 309 309 308 305 302 300 299 299 299 298 298 296 295 294 292 290 287 285 283 282 280 279 278 277 276 275 275 274 272 271 270 269 269 269 269 269 269 268 268 267 267 267 266 266 266 266 265
249 248 248 250 258 272 281 286 288 289 295 299 301 303 304 306 308 311 314 315 316 317 317 317 316 316 317 316 315 314 313 312 312 312 314 314 313 311 310 309 308 306 303 301 299 299 298 297 297 297 297 296 294 292 290 289 287 285 284 282 281 280 278 277 277 276 275 275 275 274 274 274 273 273 272 271 270 270 269 268 267 267 267 266 266
245 247 248 251 259 267 274 283 286 288 291 293 294 295 296 299 303 307 311 313 315 315 315 314 313 313 313 312 312 312 312 311 311 312 314 315 315 313 311 309 308 306 305 303 301 300 300 299 299 299 299 297 295 293 291 289 288 286 285 283 282 281 280 280 279 279 279 279 279 278 278 277 276 275 274 273 273 272 271 270 269 268 267 267 266
245 248 251 257 262 265 273 284 288 287 287 288 289 290 290 292 297 304 311 313 313 313 312 311 310 310 310 310 310 311 311 311 312 314 315 316 314 313 312 311 310 309 308 307 305 304 303 303 302 301 300 298 297 295 293 291 290 288 287 286 285 284 283 283 282 282 281 281 280 280 279 279 278 277 276 275 274 273 272 271 270 268 267 266 265
246 247 251 259 265 268 275 283 287 289 288 285 286 289 290 291 297 308 313 313 313 313 312 310 309 308 307 308 310 312 313 314 315 315 316 315 314 314 314 314 313 313 312 311 309 308 306 305 303 302 300 299 297 296 295 294 292 291 289 288 287 286 285 285 284 283 283 282 282 281 281 280 279 278 277 276 275 273 272 270 269 268 266 265 264
248 250 254 261 267 271 275 278 284 294 297 294 294 296 296 297 301 307 309 309 310 311 310 308 306 306 307 309 311 312 313 314 315 315 316 316 316 316 316 317 317 316 314 313 311 309 307 306 304 302 301 300 299 298 296 295 293 292 291 290 290 289 289 288 288 287 286 285 283 282 281 279 278 278 277 276 275 273 272 270 269 268 267 266 264
253 256 260 265 269 272 276 278 285 293 296 296 295 295 296 297 301 304 305 306 307 307 307 306 305 306 307 309 310 312 312 313 314 316 317 317 317 319 320 320 319 317 314 312 311 310 309 308 307 306 304 303 302 301 300 298 297 297 296 296 296 295 294 292 290 289 288 286 284 283 281 280 279 278 277 276 275 274 272 272 271 270 269 267 265
256 259 263 267 270 274 279 283 287 290 292 293 296 299 301 302 302 302 303 305 306 306 306 307 306 307 308 309 310 310 311 313 315 317 318 320 322 323 323 321 319 316 315 314 313 312 311 310 309 308 307 306 305 304 302 301 300 300 299 298 297 296 295 294 293 291 290 289 287 285 283 282 280 278 277 276 275 274 273 272 272 271 269 267 264
259 263 266 270 274 278 280 284 288 290 292 297 300 304 305 300 296 297 299 303 305 306 306 308 307 307 307 308 309 310 313 316 319 322 324 327 328 327 325 322 320 319 318 317 316 314 313 312 311 310 309 308 306 304 302 301 301 301 300 299 299 299 298 298 297 295 293 291 288 286 283 281 279 278 277 276 275 274 273 272 271 270 268 265 263
260 264 268 272 276 278 281 285 287 290 295 299 299 300 299 291 286 290 295 300 303 304 305 307 306 306 307 309 312 316 320 324 328 331 334 335 334 333 331 329 327 324 322 319 318 317 316 316 314 313 311 309 307 306 305 305 305 305 304 304 304 304 303 302 299 297 294 291 288 285 283 281 279 278 277 276 275 274 273 271 270 268 266 264 261
259 264 267 270 274 277 281 285 287 291 297 298 294 293 292 285 283 289 294 299 301 301 301 304 306 308 311 317 323 329 334 339 343 345 345 344 343 341 339 337 334 330 327 324 322 321 321 320 318 315 314 313 313 312 312 311 311 310 309 308 307 306 304 301 298 296 294 291 288 286 284 282 280 278 276 274 273 272 271 269 268 266 264 262 260
265 267 269 271 275 278 280 283 287 291 295 294 290 287 284 283 287 293 296 298 297 296 298 303 308 314 323 333 342 349 352 353 352 351 349 348 346 344 342 340 338 336 332 329 327 326 324 323 321 320 320 319 318 317 316 314 313 312 310 309 308 306 303 301 298 296 294 292 289 287 284 282 279 276 273 271 269 268 267 266 266 264 262 261 259
275 274 275 277 279 281 282 285 289 291 290 289 285 281 283 288 294 296 295 294 292 293 298 307 317 330 345 359 2 359 357 356 355 353 350 348 345 344 342 341 340 338 336 333 330 329 327 326 326 326 325 323 320 319 317 316 315 313 312 311 309 308 305 302 300 298 295 292 289 285 282 279 276 273 271 269 267 266 265 265 264 264 262 261 260
280 280 280 282 283 283 283 285 288 289 287 285 284 286 292 297 298 296 293 292 292 298 309 324 341 359 8 4 357 355 355 355 354 352 349 346 344 343 342 341 340 339 337 335 333 331 331 331 331 329 326 324 322 321 320 319 318 317 316 315 313 311 308 305 301 297 294 290 286 282 279 276 274 272 270 269 268 266 265 264 264 264 264 262 261
282 282 283 283 284 284 283 283 286 286 285 286 289 293 297 299 297 296 297 300 307 320 339 359 9 6 358 352 350 351 352 352 351 350 347 344 342 342 341 341 340 339 338 336 334 334 335 335 334 331 329 327 326 325 324 324 323 322 321 320 318 315 311 307 302 298 293 289 285 283 280 278 275 273 272 272 271 269 267 266 265 265 265 263 261
283 283 283 284 283 282 282 283 285 285 287 290 291 291 295 302 310 317 323 331 343 360 10 7 358 352 349 348 347 348 349 349 348 347 344 342 341 341 340 340 340 339 338 337 336 337 338 338 336 334 333 332 331 330 329 329 330 329 328 326 322 318 314 310 306 302 297 294 290 287 284 282 280 279 277 275 273 271 268 266 266 266 264 262 260
281 281 281 282 283 284 284 286 288 290 291 289 284 282 296 326 340 347 351 356 5 8 356 348 344 344 344 344 344 345 345 345 345 343 341 340 340 340 339 339 339 339 338 338 339 340 340 339 338 338 338 337 336 335 334 336 337 337 336 333 328 325 322 319 315 311 307 304 299 295 292 290 287 283 278 274 271 270 269 269 269 269 268 267 263
280 280 281 283 286 288 289 291 292 291 286 278 269 270 309 335 345 348 348 351 349 342 339 337 338 339 340 340 340 340 341 342 342 340 339 339 339 338 338 338 338 339 339 340 341 341 341 340 340 341 342 342 341 340 339 342 344 344 342 340 337 334 332 330 328 325 322 318 314 310 307 305 300 294 288 284 282 280 279 278 278 279 278 276 271
287 286 286 288 291 292 291 291 286 279 268 256 253 279 311 324 330 330 328 326 326 328 330 331 332 334 336 336 336 336 337 339 339 338 338 337 337 337 337 337 338 339 340 341 342 342 341 341 343 345 346 346 345 345 345 347 350 349 348 346 345 343 342 340 339 339 336 334 330 325 324 324 324 321 318 313 307 299 296 294 292 290 286 280 277
296 294 293 293 292 289 286 280 267 253 239 241 259 277 292 303 310 312 313 314 318 322 324 326 328 330 331 331 331 333 335 337 337 337 337 336 336 336 336 337 338 339 341 342 343 343 342 344 346 348 349 349 349 350 351 353 353 353 353 352 351 350 349 348 348 348 347 345 343 341 342 345 343 341 341 335 328 322 318 311 303 296 293 290 289
299 297 294 291 284 277 271 262 251 249 263 275 276 278 283 292 300 305 307 310 314 316 319 322 324 325 325 326 329 332 335 335 335 335 336 336 335 335 336 337 338 340 341 343 343 344 344 347 349 351 352 353 353 354 356 356 356 356 356 356 355 354 354 353 353 354 355 354 353 353 356 359 356 355 355 354 349 345 335 321 309 302 301 303 303
297 292 285 278 272 267 265 265 264 268 277 285 286 284 284 290 297 301 303 307 311 314 317 319 319 319 320 324 329 332 334 334 334 335 335 335 335 334 335 337 339 341 342 344 345 345 347 350 352 353 355 357 357 358 358 359 358 358 358 358 357 357 357 357 357 358 360 360 1 4 8 9 7 7 8 8 7 2 349 335 326 320 319 323 325
285 279 273 268 267 268 269 271 274 277 280 285 287 285 285 288 293 297 300 304 309 313 315 315 316 316 319 323 329 332 333 334 334 335 335 335 334 334 336 338 340 342 344 346 347 347 349 352 355 356 358 359 0 0 0 0 0 360 359 359 359 359 359 359 359 0 3 4 7 12 16 17 18 19 19 18 17 13 7 12 26 26 24 38 54
274 271 270 268 268 270 270 271 275 280 282 284 284 284 284 285 288 292 297 302 306 309 311 314 315 316 319 324 329 331 333 334 334 334 335 334 333 334 336 339 342 344 346 347 347 348 352 355 357 358 360 0 2 3 2 2 2 1 0 0 0 360 0 1 1 3 5 8 13 17 22 25 27 29 28 26 24 22 24 32 44 55 66 79 86
276 274 275 273 273 275 276 276 278 282 283 282 281 280 280 280 282 288 294 300 304 307 311 314 315 317 321 327 330 332 334 334 334 334 333 333 333 335 337 340 343 346 347 348 348 350 354 357 359 0 1 2 3 5 4 4 3 3 2 3 3 2 1 2 4 6 8 13 18 22 28 34 35 35 37 37 34 32 35 41 48 56 63 75 88
283 280 280 279 278 279 279 280 281 284 285 285 283 282 281 281 284 290 297 302 306 310 315 317 317 320 325 328 330 333 334 334 333 332 332 332 333 336 339 342 345 347 348 349 350 353 357 360 0 1 3 3 5 6 6 6 5 5 5 5 6 6 4 4 6 8 12 18 23 27 34 40 42 42 44 46 43 41 43 47 52 57 62 71 85
292 286 283 282 281 282 283 284 284 285 287 288 289 289 289 290 293 298 302 306 311 315 317 317 319 323 326 329 332 334 334 332 331 331 331 332 335 338 341 344 346 348 349 350 351 355 360 2 2 3 5 6 7 8 9 9 8 8 8 8 9 9 8 7 9 12 17 23 28 32 38 44 46 46 49 53 52 50 51 54 56 61 67 77 89
297 291 287 285 284 284 286 287 288 290 291 293 295 297 298 300 301 303 306 309 312 312 313 315 319 323 326 329 332 333 332 330 330 331 332 334 337 340 343 345 348 349 350 351 353 358 2 4 3 5 7 9 9 11 11 12 12 11 11 12 12 13 12 12 13 16 22 29 35 37 41 46 49 49 53 58 60 59 58 59 61 66 72 82 95
298 293 290 287 286 286 288 290 292 295 297 300 302 303 305 305 305 306 309 311 310 310 311 315 320 324 328 331 332 332 330 329 330 332 334 336 340 343 344 347 349 350 351 352 356 0 4 5 5 7 10 11 12 13 15 16 16 15 14 15 16 16 17 18 19 22 28 35 40 42 44 48 50 50 53 60 65 66 66 64 65 70 76 82 93
301 296 292 289 287 286 288 291 294 296 298 301 304 305 306 306 307 308 310 312 312 313 315 319 323 327 330 332 332 331 329 330 332 335 336 339 342 344 346 348 350 351 352 354 358 3 6 7 8 10 13 15 16 17 18 20 20 19 18 19 20 20 21 23 26 29 33 38 43 47 47 48 50 51 53 58 65 69 71 70 70 73 77 82 90
304 300 296 293 290 289 289 290 293 296 299 302 303 305 306 307 309 311 312 314 315 316 320 324 328 331 332 332 332 331 331 333 335 336 339 342 344 346 347 349 351 352 353 355 360 4 8 10 11 13 17 19 20 21 22 23 23 23 23 23 24 24 26 28 32 35 37 40 44 49 50 49 48 50 52 55 61 67 73 76 78 80 83 86 90
304 301 298 296 294 293 294 295 297 300 303 305 306 307 308 310 312 313 314 316 318 320 324 329 332 333 333 333 334 334 334 336 336 338 340 343 346 348 349 350 352 353 354 356 1 6 9 12 14 16 20 22 23 24 26 26 27 27 27 27 28 28 30 33 36 38 40 41 43 46 50 50 48 48 51 55 59 64 71 78 83 89 94 95 96
306 303 300 298 297 297 298 300 302 304 306 308 310 311 312 313 314 315 317 319 321 325 330 333 334 334 335 337 338 337 338 338 338 339 341 344 346 349 350 351 352 354 355 357 2 7 11 14 17 19 23 26 27 28 29 29 30 30 31 31 32 32 34 36 39 41 43 43 44 44 47 49 49 47 48 52 58 64 71 79 88 97 105 108 109
310 307 303 301 299 300 301 302 304 307 308 310 312 313 314 315 316 318 320 323 326 330 333 335 335 336 337 339 340 339 339 340 340 340 342 344 347 350 351 352 353 354 355 357 2 8 13 16 19 22 25 28 30 31 32 32 32 33 34 35 36 36 37 40 42 43 44 45 45 44 45 46 47 46 44 45 50 57 68 81 93 105 115 122 125
313 310 307 304 303 303 304 306 308 310 312 314 315 316 317 318 320 322 325 328 331 334 336 336 336 337 338 339 340 341 341 342 342 342 343 344 347 350 352 352 353 355 355 357 2 9 14 17 21 24 27 30 32 33 34 35 35 35 35 37 38 40 41 42 44 46 47 48 47 46 44 43 43 43 43 42 43 46 54 69 90 111 126 137 142
318 313 310 308 307 308 309 311 313 316 318 319 320 321 322 322 324 326 330 334 336 338 338 339 339 340 341 341 342 343 344 344 344 344 344 345 347 350 353 353 353 355 356 357 1 8 14 18 22 26 29 32 34 35 36 37 38 38 38 38 39 41 43 45 46 48 49 50 51 50 49 47 44 42 41 40 39 40 42 48 62 93 127 148 158
320 316 312 310 310 311 312 314 316 319 321 322 322 322 322 323 325 326 329 335 338 339 339 341 344 347 348 348 348 348 348 348 346 346 345 345 346 348 352 353 353 354 356 357 0 7 14 18 22 26 30 33 36 37 38 39 40 40 40 40 40 42 44 46 48 49 50 51 52 53 53 52 50 48 46 43 41 39 37 37 40 51 82 139 165
317 314 311 309 309 310 312 314 316 318 319 320 320 320 320 321 321 320 322 328 334 337 339 344 349 353 353 353 353 352 351 350 349 348 347 347 346 347 350 353 353 354 355 356 358 5 13 17 21 26 30 34 37 39 40 40 41 42 42 42 42 42 44 46 48 50 52 52 53 53 53 53 53 52 51 49 47 45 42 38 36 34 36 57 157
312 311 309 306 305 306 308 311 313 315 316 317 317 317 318 319 319 316 317 322 328 333 337 342 345 348 350 351 352 351 351 351 351 349 348 347 347 347 349 352 353 353 355 355 356 1 10 16 20 26 31 34 38 40 41 42 43 43 44 44 44 44 44 46 48 50 52 53 53 53 54 53 53 53 53 52 51 50 48 46 43 40 36 32 23
307 306 305 304 302 301 303 306 309 311 312 313 314 315 315 317 318 317 317 320 325 329 334 337 338 339 341 343 345 347 348 350 352 352 350 348 349 349 349 351 352 353 354 354 354 357 6 13 19 24 30 35 38 41 42 43 44 44 45 45 46 46 46 46 47 50 52 53 54 54 54 54 53 53 53 53 53 52 51 50 49 47 45 43 39
300 301 301 301 300 299 299 301 304 305 306 307 309 310 312 314 316 316 316 317 319 325 332 336 337 336 335 336 338 343 348 351 353 354 352 349 349 350 351 351 351 352 353 353 352 353 0 10 16 23 30 36 39 41 43 45 45 46 46 46 47 48 47 47 47 49 51 53 55 55 55 55 54 54 54 53 53 53 53 52 51 51 50 49 48
294 294 296 297 297 297 296 297 298 300 301 301 302 304 306 308 310 311 310 309 308 312 320 327 329 330 333 335 336 339 345 349 352 353 353 351 350 350 350 351 350 350 351 352 351 349 353 4 13 21 28 35 40 42 44 46 47 47 47 48 48 49 49 49 48 49 50 52 54 55 56 56 56 56 56 55 55 54 54 54 53 53 52 51 51
290 290 291 292 293 293 294 293 294 295 296 296 297 298 300 301 303 304 304 304 304 305 311 318 324 329 335 339 341 341 343 346 347 348 349 350 351 350 348 348 349 349 349 351 350 347 347 356 9 19 26 34 40 43 44 46 48 48 49 49 49 49 50 50 50 49 49 50 52 53 54 55 55 55 55 55 55 55 54 54 53 53 53 53 53
288 287 288 289 290 290 291 291 291 292 292 292 293 293 295 296 296 296 297 299 300 302 306 313 320 326 332 337 342 345 345 345 347 347 346 346 349 349 348 346 346 347 348 348 348 345 342 346 360 14 24 32 38 43 45 46 48 49 50 50 50 50 51 51 51 50 50 49 49 51 52 53 53 53 53 54 54 54 54 54 54 53 53 53 53
287 285 285 286 286 288 289 289 290 291 291 291 290 290 292 293 293 292 291 293 295 297 301 305 310 316 321 327 335 341 341 338 338 342 344 344 344 346 347 345 344 344 345 345 346 344 339 337 346 4 19 29 36 42 45 46 48 49 51 51 51 51 51 52 52 53 52 51 50 50 50 50 51 51 51 52 52 53 54 54 54 54 54 54 54
287 284 283 283 284 285 286 286 287 289 290 290 289 288 288 289 290 290 289 289 290 292 295 298 302 306 311 316 324 334 337 331 325 328 335 339 340 341 344 345 344 341 341 342 343 342 338 332 332 346 7 22 31 38 43 47 49 50 51 52 53 53 52 52 53 53 54 54 53 51 50 50 50 50 50 50 51 51 52 53 53 54 54 54 54
287 284 282 282 283 284 284 285 285 286 288 289 289 287 286 285 286 287 287 288 288 289 290 292 295 299 303 306 311 318 325 326 322 320 323 329 333 335 336 340 342 342 340 337 337 338 335 328 320 323 344 6 21 31 38 44 48 50 51 53 54 54 53 53 52 52 53 53 53 53 52 51 51 50 50 49 49 49 50 50 51 52 52 53 53
286 284 282 282 282 283 283 284 285 285 286 287 288 287 285 284 283 283 284 285 287 288 289 289 291 293 296 299 302 304 308 314 317 315 313 316 323 328 329 331 335 339 339 336 332 332 332 327 315 306 315 339 1 18 28 36 43 47 50 51 53 54 54 54 53 52 52 52 52 52 52 52 51 51 51 50 49 48 48 49 49 50 51 51 52
Height
10940 10939 10939 10939 10939 10938 10937 10936 10935 10934 10932 10931 10930 10928 10927 10925 10923 10921 10919 10918 10916 10915 10914 10912 10911 10910 10908 10907 10905 10904 10902 10900 10899 10897 10895 10893 10890 10888 10886 10883 10881 10878 10875 10873 10870 10867 10865 10861 10859 10856 10853 10851 10849 10847 10845 10843 10841 10840 10838 10837 10835 10834 10832 10831 10829 10827 10825 10824 10822 10820 10818 10816 10815 10814 10812 10810 10808 10807 10807 10807 10807 10806 10806 10805 10806
10937 10937 10937 10937 10937 10936 10935 10934 10933 10932 10931 10930 10929 10928 10926 10924 10922 10921 10919 10917 10916 10914 10913 10911 10910 10908 10906 10905 10903 10901 10899 10898 10896 10894 10892 10890 10887 10885 10882 10879 10876 10873 10871 10868 10865 10862 10859 10856 10853 10849 10847 10844 10842 10839 10837 10835 10833 10831 10829 10827 10826 10825 10823 10821 10819 10817 10815 10813 10811 10810 10808 10806 10804 10803 10801 10799 10797 10795 10794 10794 10794 10793 10792 10791 10791
10935 10934 10933 10934 10934 10934 10933 10933 10932 10931 10930 10928 10927 10926 10925 10923 10921 10920 10918 10917 10915 10914 10912 10910 10908 10906 10904 10902 10901 10899 10897 10894 10892 10890 10888 10886 10883 10881 10878 10875 10872 10869 10866 10863 10859 10856 10853 10850 10846 10843 10840 10837 10834 10831 10829 10827 10824 10822 10820 10818 10816 10814 10812 10810 10808 10806 10803 10801 10799 10798 10797 10795 10792 10791 10789 10787 10785 10784 10782 10781 10780 10778 10777 10776 10776
10932 10931 10931 10931 10931 10931 10931 10931 10930 10929 10928 10927 10925 10924 10923 10921 10920 10918 10917 10916 10914 10912 10911 10909 10906 10904 10902 10900 10898 10896 10893 10891 10889 10886 10884 10881 10878 10875 10872 10869 10866 10863 10860 10857 10854 10850 10847 10843 10840 10836 10833 10829 10826 10824 10821 10818 10816 10814 10811 10809 10806 10804 10801 10798 10796 10793 10791 10788 10786 10785 10784 10782 10779 10777 10775 10773 10772 10771 10770 10769 10767 10765 10763 10762 10760
10928 10928 10928 10928 10928 10929 10929 10928 10928 10927 10925 10924 10923 10922 10921 10919 10918 10916 10915 10914 10912 10910 10908 10906 10904 10901 10899 10897 10895 10892 10890 10887 10885 10882 10879 10876 10873 10870 10867 10864 10860 10857 10854 10850 10847 10843 10840 10836 10833 10829 10826 10822 10819 10816 10812 10809 10807 10804 10801 10798 10795 10793 10790 10787 10784 10781 10778 10775 10772 10771 10770 10768 10766 10762 10760 10758 10756 10756 10755 10754 10753 10751 10749 10746 10744
10924 10925 10925 10926 10926 10926 10926 10926 10925 10924 10923 10922 10920 10920 10919 10917 10916 10914 10913 10911 10909 10907 10906 10903 10901 10899 10896 10894 10891 10888 10886 10883 10880 10877 10874 10871 10867 10864 10861 10858 10854 10851 10847 10844 10840 10837 10833 10829 10826 10822 10818 10815 10811 10807 10804 10800 10798 10795 10791 10788 10785 10781 10778 10776 10772 10769 10766 10762 10759 10757 10755 10754 10751 10747 10744 10742 10740 10740 10738 10737 10736 10735 10733 10731 10728
10921 10922 10922 10922 10923 10923 10923 10923 10922 10921 10920 10919 10918 10917 10916 10915 10914 10912 10911 10909 10907 10905 10903 10901 10898 10896 10893 10890 10887 10885 10882 10879 10876 10872 10869 10866 10862 10859 10855 10851 10848 10844 10841 10837 10834 10830 10827 10823 10819 10814 10810 10806 10802 10798 10794 10790 10787 10784 10781 10778 10774 10770 10767 10764 10760 10757 10753 10750 10746 10743 10740 10738 10735 10732 10728 10726 10724 10723 10722 10720 10718 10718 10717 10716 10715
10919 10920 10920 10920 10920 10921 10921 10921 10920 10919 10918 10917 10916 10915 10914 10913 10912 10910 10909 10907 10905 10902 10900 10898 10895 10892 10889 10886 10883 10880 10877 10874 10871 10867 10864 10861 10857 10853 10849 10846 10842 10838 10835 10831 10828 10824 10820 10816 10812 10807 10803 10798 10794 10789 10785 10780 10776 10772 10769 10766 10762 10758 10755 10752 10748 10745 10741 10737 10733 10730 10726 10722 10720 10716 10713 10710 10708 10707 10705 10703 10702 10702 10702 10702 10702
10917 10918 10919 10920 10920 10920 10920 10919 10918 10918 10917 10916 10915 10913 10912 10911 10909 10907 10906 10904 10902 10899 10897 10894 10891 10888 10885 10882 10879 10876 10873 10870 10866 10863 10859 10856 10852 10848 10844 10840 10837 10833 10829 10826 10822 10818 10814 10809 10804 10800 10795 10790 10785 10780 10775 10770 10766 10761 10757 10754 10750 10746 10742 10738 10735 10731 10727 10723 10720 10716 10712 10708 10705 10702 10699 10696 10693 10692 10690 10688 10688 10689 10689 10689 10690
10917 10918 10919 10919 10918 10918 10918 10917 10917 10916 10915 10915 10913 10912 10910 10908 10906 10904 10902 10900 10898 10895 10892 10889 10887 10884 10880 10877 10874 10871 10868 10865 10862 10858 10855 10851 10847 10843 10839 10836 10832 10829 10825 10821 10816 10812 10807 10803 10797 10792 10787 10782 10776 10770 10764 10758 10754 10749 10744 10740 10736 10732 10728 10724 10720 10716 10712 10709 10706 10702 10698 10694 10692 10689 10686 10683 10680 10678 10677 10676 10675 10676 10677 10678 10678
10918 10918 10918 10917 10916 10916 10916 10915 10914 10913 10913 10912 10910 10909 10907 10904 10901 10899 10897 10895 10893 10890 10888 10885 10882 10879 10876 10873 10870 10867 10864 10861 10858 10854 10850 10846 10842 10838 10835 10832 10828 10824 10820 10815 10811 10806 10801 10796 10791 10785 10779 10774 10768 10761 10754 10747 10741 10737 10732 10727 10723 10718 10714 10710 10707 10703 10699 10695 10692 10689 10685 10682 10679 10676 10674 10671 10669 10667 10666 10665 10665 10665 10665 10666 10667
10916 10915 10915 10914 10914 10914 10914 10913 10912 10911 10910 10909 10907 10906 10904 10900 10897 10894 10892 10890 10888 10886 10884 10881 10878 10874 10871 10869 10866 10863 10860 10857 10853 10850 10846 10842 10838 10835 10831 10828 10824 10819 10815 10810 10805 10800 10795 10789 10784 10778 10771 10765 10759 10752 10744 10737 10732 10726 10721 10716 10711 10707 10702 10697 10693 10689 10686 10683 10679 10676 10674 10671 10668 10665 10663 10661 10659 10657 10656 10655 10654 10654 10654 10655 10656
10912 10912 10912 10912 10912 10912 10911 10910 10909 10908 10907 10906 10904 10903 10902 10898 10894 10891 10888 10886 10884 10882 10880 10877 10874 10871 10868 10865 10862 10859 10856 10853 10849 10845 10842 10838 10835 10832 10828 10824 10820 10815 10810 10804 10799 10794 10788 10782 10776 10770 10763 10756 10749 10742 10734 10727 10721 10715 10709 10705 10700 10695 10690 10686 10681 10677 10674 10671 10668 10665 10663 10661 10659 10657 10654 10651 10649 10648 10646 10646 10645 10644 10644 10645 10646
10909 10909 10909 10909 10909 10908 10908 10907 10906 10905 10904 10903 10902 10901 10900 10896 10891 10888 10886 10883 10881 10879 10876 10873 10870 10868 10865 10862 10859 10856 10853 10850 10846 10843 10839 10836 10832 10829 10824 10820 10815 10810 10804 10799 10793 10788 10782 10776 10769 10761 10754 10747 10739 10732 10724 10716 10709 10703 10697 10692 10688 10684 10679 10675 10670 10667 10664 10661 10658 10655 10653 10652 10650 10648 10646 10644 10642 10640 10638 10637 10636 10636 10635 10635 10636
10906 10906 10905 10905 10905 10905 10904 10903 10903 10902 10901 10900 10899 10899 10897 10893 10889 10886 10883 10880 10878 10875 10872 10870 10867 10864 10861 10859 10856 10854 10851 10848 10844 10840 10837 10833 10829 10825 10820 10816 10811 10805 10799 10794 10788 10783 10777 10770 10762 10753 10745 10736 10729 10721 10714 10706 10699 10692 10686 10681 10676 10673 10669 10664 10660 10657 10654 10652 10649 10647 10645 10643 10642 10640 10638 10637 10635 10633 10631 10629 10628 10628 10628 10627 10628
10903 10903 10902 10902 10902 10901 10901 10900 10899 10898 10897 10896 10896 10895 10892 10890 10887 10884 10881 10878 10875 10872 10869 10866 10864 10861 10859 10856 10854 10852 10849 10846 10842 10838 10834 10830 10826 10821 10816 10811 10806 10801 10795 10789 10783 10777 10771 10763 10755 10746 10737 10729 10721 10713 10705 10697 10690 10683 10677 10672 10667 10663 10660 10656 10651 10649 10646 10644 10642 10640 10638 10636 10634 10633 10631 10629 10628 10626 10625 10623 10621 10621 10621 10622 10622
10901 10900 10899 10899 10898 10898 10897 10896 10895 10894 10893 10892 10891 10889 10888 10886 10883 10880 10877 10874 10871 10868 10866 10863 10861 10859 10857 10855 10853 10850 10846 10842 10838 10835 10831 10827 10822 10817 10812 10807 10802 10796 10790 10785 10779 10772 10764 10756 10748 10740 10732 10723 10714 10706 10698 10690 10683 10675 10669 10664 10659 10655 10652 10648 10645 10642 10640 10638 10636 10634 10632 10630 10628 10626 10625 10623 10622 10620 10619 10617 10616 10615 10615 10616 10616
10897 10897 10896 10895 10895 10894 10893 10892 10891 10890 10889 10888 10887 10885 10884 10882 10879 10876 10874 10871 10868 10866 10864 10861 10859 10857 10855 10853 10850 10847 10843 10839 10835 10832 10828 10823 10819 10814 10808 10803 10797 10792 10786 10780 10774 10767 10758 10750 10743 10735 10726 10716 10707 10699 10692 10684 10677 10669 10663 10657 10653 10648 10645 10642 10639 10637 10635 10633 10630 10628 10626 10624 10623 10621 10619 10618 10616 10615 10613 10612 10611 10611 10611 10611 10611
10894 10893 10892 10891 10891 10890 10889 10888 10887 10887 10886 10885 10883 10882 10880 10878 10876 10873 10871 10869 10867 10864 10862 10860 10858 10856 10853 10851 10847 10844 10840 10836 10832 10829 10825 10820 10815 10810 10804 10799 10793 10787 10781 10775 10767 10760 10752 10745 10737 10729 10719 10710 10701 10693 10686 10679 10672 10664 10658 10652 10648 10643 10640 10637 10635 10632 10630 10628 10626 10623 10621 10620 10618 10616 10615 10613 10612 10610 10609 10608 10607 10607 10607 10606 10606
10890 10889 10888 10888 10887 10886 10885 10885 10884 10883 10882 10881 10879 10878 10876 10875 10873 10871 10869 10867 10865 10863 10861 10858 10856 10854 10851 10848 10845 10841 10837 10834 10830 10826 10821 10817 10812 10807 10801 10795 10789 10784 10777 10770 10762 10754 10747 10740 10733 10724 10715 10705 10696 10688 10681 10674 10667 10660 10654 10649 10644 10640 10636 10633 10630 10628 10625 10623 10621 10619 10617 10616 10614 10613 10611 10610 10609 10607 10606 10605 10604 10604 10603 10603 10602
10887 10886 10885 10885 10884 10883 10882 10881 10881 10880 10879 10878 10876 10875 10874 10872 10871 10869 10867 10865 10863 10861 10859 10856 10854 10851 10848 10845 10842 10839 10835 10831 10827 10823 10818 10813 10808 10803 10798 10792 10786 10780 10774 10766 10758 10751 10744 10737 10729 10720 10711 10702 10693 10685 10678 10671 10664 10657 10652 10647 10642 10638 10634 10630 10627 10624 10621 10619 10617 10615 10613 10612 10610 10609 10608 10607 10606 10604 10603 10602 10601 10600 10600 10599 10598
10883 10883 10882 10882 10881 10880 10879 10878 10878 10877 10877 10875 10874 10873 10871 10870 10868 10867 10865 10863 10861 10859 10857 10854 10852 10849 10846 10843 10840 10836 10832 10829 10824 10820 10815 10810 10805 10800 10795 10789 10783 10777 10770 10763 10756 10748 10741 10733 10725 10717 10708 10699 10691 10683 10675 10668 10661 10655 10649 10644 10640 10635 10631 10627 10624 10621 10618 10616 10614 10611 10610 10608 10607 10606 10604 10603 10602 10601 10600 10599 10598 10597 10597 10596 10595
10879 10879 10878 10878 10878 10877 10877 10876 10875 10875 10874 10873 10872 10870 10869 10868 10866 10865 10863 10861 10859 10857 10855 10852 10849 10847 10844 10841 10837 10834 10830 10826 10822 10817 10812 10807 10802 10797 10792 10786 10781 10774 10767 10760 10753 10746 10738 10730 10722 10714 10705 10697 10688 10681 10673 10666 10659 10654 10648 10643 10638 10634 10629 10625 10621 10618 10615 10613 10611 10609 10607 10606 10604 10603 10602 10601 10600 10599 10598 10597 10596 10595 10594 10593 10592
10877 10876 10876 10876 10876 10875 10875 10874 10874 10873 10871 10870 10869 10868 10867 10866 10864 10863 10861 10859 10857 10855 10853 10850 10847 10845 10842 10838 10835 10831 10827 10823 10819 10814 10809 10804 10799 10794 10789 10784 10778 10771 10764 10757 10750 10743 10736 10728 10719 10711 10703 10694 10686 10678 10671 10664 10658 10652 10646 10641 10637 10632 10628 10623 10620 10616 10613 10611 10609 10608 10606 10604 10602 10601 10600 10599 10598 10597 10597 10596 10595 10594 10593 10592 10591
10875 10875 10874 10874 10874 10873 10873 10872 10872 10871 10869 10868 10867 10866 10865 10864 10862 10861 10859 10857 10855 10852 10850 10848 10845 10842 10839 10836 10833 10829 10825 10820 10816 10811 10806 10802 10797 10792 10787 10782 10776 10769 10762 10755 10747 10740 10732 10725 10717 10709 10701 10693 10685 10677 10670 10664 10657 10651 10645 10640 10635 10631 10626 10622 10618 10615 10612 10610 10608 10607 10605 10604 10602 10601 10599 10598 10598 10597 10596 10595 10594 10593 10592 10592 10591
10874 10874 10873 10873 10872 10871 10871 10870 10869 10868 10867 10866 10865 10864 10863 10861 10860 10858 10856 10854 10852 10850 10848 10846 10843 10840 10837 10834 10831 10826 10822 10818 10813 10808 10804 10799 10795 10790 10785 10780 10774 10767 10759 10752 10745 10738 10731 10724 10716 10708 10700 10693 10685 10678 10671 10664 10657 10650 10644 10639 10634 10629 10625 10621 10617 10614 10611 10609 10608 10606 10605 10603 10602 10601 10599 10598 10598 10597 10596 10595 10594 10593 10592 10592 10591
10873 10873 10872 10871 10870 10869 10869 10868 10867 10866 10865 10864 10863 10862 10861 10859 10857 10855 10854 10852 10850 10847 10845 10843 10840 10837 10835 10831 10828 10824 10820 10815 10810 10806 10802 10797 10793 10789 10784 10778 10772 10765 10758 10751 10745 10738 10731 10724 10716 10709 10701 10694 10686 10679 10671 10664 10658 10651 10645 10639 10633 10628 10624 10620 10616 10613 10611 10609 10607 10605 10604 10603 10602 10601 10600 10599 10598 10597 10596 10595 10594 10593 10593 10592 10592
10872 10871 10870 10869 10868 10867 10867 10866 10865 10864 10863 10862 10861 10860 10858 10857 10855 10853 10851 10849 10847 10845 10842 10840 10837 10834 10832 10829 10825 10821 10817 10813 10808 10804 10800 10796 10792 10787 10782 10777 10770 10764 10757 10751 10745 10738 10731 10724 10717 10710 10703 10695 10687 10680 10672 10665 10658 10652 10645 10639 10633 10627 10623 10619 10616 10613 10610 10608 10606 10605 10604 10603 10602 10601 10600 10599 10598 10597 10596 10595 10594 10594 10593 10593 10592
10869 10869 10867 10867 10866 10865 10864 10863 10862 10862 10861 10860 10859 10857 10855 10854 10852 10850 10848 10846 10844 10841 10839 10836 10834 10831 10829 10826 10822 10818 10814 10810 10806 10802 10798 10794 10790 10786 10781 10775 10769 10763 10757 10751 10745 10739 10732 10725 10718 10711 10704 10696 10688 10680 10673 10666 10659 10652 10645 10638 10632 10627 10622 10618 10615 10612 10610 10608 10606 10605 10604 10603 10602 10602 10601 10600 10599 10598 10597 10596 10595 10594 10594 10593 10593
10867 10866 10865 10864 10863 10863 10862 10861 10860 10859 10858 10857 10855 10854 10852 10850 10849 10847 10845 10843 10841 10838 10836 10833 10831 10829 10826 10823 10819 10816 10812 10808 10804 10800 10797 10793 10789 10785 10780 10774 10768 10762 10757 10751 10745 10739 10732 10726 10720 10713 10706 10698 10690 10682 10675 10667 10659 10652 10645 10638 10632 10626 10621 10617 10614 10611 10609 10608 10606 10605 10604 10604 10603 10603 10602 10601 10600 10599 10598 10597 10597 10596 10595 10595 10594
10866 10865 10863 10862 10861 10860 10859 10858 10857 10855 10854 10853 10852 10850 10848 10847 10845 10843 10842 10840 10838 10835 10833 10831 10829 10826 10823 10820 10817 10813 10809 10806 10803 10799 10796 10792 10788 10784 10779 10773 10767 10762 10756 10751 10746 10739 10733 10727 10721 10715 10708 10700 10692 10684 10677 10669 10661 10653 10645 10638 10632 10626 10622 10618 10614 10612 10610 10608 10607 10606 10605 10605 10604 10604 10603 10602 10602 10601 10600 10600 10599 10598 10598 10597 10597
10864 10863 10862 10860 10859 10858 10857 10855 10854 10852 10851 10850 10848 10847 10845 10844 10842 10840 10839 10837 10835 10833 10831 10829 10826 10824 10821 10817 10814 10810 10807 10804 10801 10798 10795 10791 10787 10783 10778 10773 10767 10762 10757 10752 10746 10740 10734 10728 10723 10717 10710 10702 10694 10687 10679 10671 10663 10655 10647 10640 10633 10627 10623 10619 10615 10613 10611 10609 10608 10607 10607 10606 10606 10605 10605 10604 10604 10603 10603 10602 10601 10601 10600 10600 10599
10862 10861 10860 10858 10857 10856 10855 10853 10852 10850 10849 10847 10846 10844 10843 10841 10840 10838 10836 10834 10832 10830 10828 10826 10824 10821 10818 10814 10811 10808 10805 10802 10799 10797 10793 10790 10786 10782 10777 10773 10767 10762 10757 10752 10746 10741 10735 10730 10724 10719 10712 10705 10697 10690 10682 10674 10666 10659 10651 10643 10636 10630 10625 10620 10617 10614 10612 10611 10610 10609 10608 10608 10607 10607 10606 10606 10605 10605 10604 10604 10604 10603 10603 10602 10602
10860 10858 10857 10856 10855 10854 10853 10851 10850 10848 10847 10845 10843 10842 10840 10839 10837 10836 10834 10832 10830 10828 10826 10823 10821 10818 10815 10812 10809 10806 10803 10801 10798 10795 10792 10789 10785 10781 10777 10773 10768 10762 10757 10752 10747 10742 10737 10731 10726 10721 10714 10707 10700 10693 10685 10678 10670 10663 10655 10647 10640 10634 10628 10623 10619 10617 10614 10613 10612 10611 10610 10610 10609 10609 10608 10608 10608 10607 10607 10606 10606 10605 10605 10605 10605
10858 10856 10854 10853 10852 10851 10850 10849 10847 10846 10844 10843 10841 10839 10838 10836 10834 10833 10831 10830 10828 10825 10823 10820 10818 10815 10813 10810 10807 10805 10802 10800 10797 10794 10791 10788 10784 10781 10777 10773 10768 10763 10758 10753 10748 10744 10738 10733 10728 10723 10717 10710 10704 10696 10689 10682 10675 10668 10660 10653 10646 10639 10633 10627 10623 10620 10618 10616 10615 10614 10613 10612 10611 10611 10611 10610 10610 10609 10609 10608 10608 10608 10607 10607 10607
10856 10854 10853 10851 10850 10848 10847 10846 10845 10844 10842 10841 10839 10837 10836 10834 10832 10830 10829 10827 10825 10823 10820 10818 10816 10814 10811 10809 10806 10804 10801 10799 10796 10793 10790 10787 10784 10781 10777 10773 10768 10763 10758 10754 10750 10745 10740 10735 10730 10725 10720 10713 10707 10700 10693 10686 10680 10673 10666 10659 10652 10645 10639 10633 10628 10624 10622 10620 10618 10617 10616 10615 10614 10614 10613 10612 10612 10611 10611 10610 10610 10610 10610 10609 10609
10853 10852 10851 10849 10848 10846 10845 10844 10843 10842 10841 10839 10838 10836 10834 10833 10831 10829 10827 10825 10823 10820 10818 10816 10814 10812 10810 10808 10805 10803 10800 10798 10795 10792 10790 10787 10784 10780 10777 10773 10769 10764 10759 10755 10751 10747 10742 10738 10733 10728 10723 10717 10711 10704 10698 10691 10685 10679 10672 10666 10659 10652 10646 10640 10634 10630 10627 10624 10623 10621 10620 10619 10617 10616 10616 10615 10614 10613 10612 10612 10611 10611 10611 10611 10611
10851 10849 10848 10847 10846 10844 10843 10842 10841 10840 10839 10837 10836 10834 10833 10831 10829 10827 10825 10823 10821 10819 10817 10815 10813 10811 10809 10806 10804 10802 10799 10797 10794 10791 10789 10786 10783 10780 10777 10773 10769 10765 10760 10756 10752 10748 10744 10740 10735 10731 10726 10720 10715 10709 10703 10697 10690 10684 10678 10672 10665 10659 10653 10647 10642 10637 10633 10630 10627 10625 10624 10622 10621 10620 10619 10617 10616 10615 10615 10614 10613 10613 10612 10612 10613
10850 10848 10846 10845 10843 10842 10841 10839 10838 10837 10836 10835 10834 10832 10831 10829 10827 10825 10823 10821 10819 10817 10816 10814 10812 10810 10807 10805 10803 10801 10798 10796 10793 10791 10788 10786 10783 10780 10777 10773 10770 10765 10761 10757 10754 10750 10746 10742 10738 10734 10729 10724 10719 10713 10708 10702 10696 10690 10684 10679 10673 10667 10661 10655 10650 10645 10640 10637 10634 10631 10629 10627 10625 10623 10622 10620 10619 10618 10617 10616 10615 10614 10614 10613 10613
10848 10847 10845 10843 10841 10840 10839 10837 10836 10835 10834 10832 10831 10830 10829 10827 10825 10824 10822 10820 10818 10816 10815 10813 10811 10809 10807 10804 10802 10800 10797 10795 10792 10790 10788 10785 10783 10780 10777 10774 10770 10766 10762 10759 10755 10752 10748 10744 10741 10736 10732 10727 10722 10717 10713 10707 10702 10696 10691 10686 10680 10675 10669 10663 10658 10653 10648 10644 10641 10637 10635 10632 10630 10628 10625 10623 10622 10620 10619 10617 10616 10616 10615 10614 10614
10846 10845 10843 10841 10839 10838 10836 10835 10834 10832 10831 10830 10829 10827 10826 10825 10824 10822 10821 10819 10818 10816 10814 10812 10810 10808 10806 10804 10801 10799 10797 10794 10792 10789 10787 10785 10782 10780 10777 10774 10770 10767 10763 10760 10757 10753 10750 10746 10743 10739 10735 10730 10726 10721 10717 10712 10707 10702 10697 10692 10687 10682 10677 10672 10666 10661 10656 10652 10648 10645 10641 10638 10635 10633 10630 10627 10625 10623 10621 10619 10618 10617 10616 10615 10615
10844 10842 10841 10839 10837 10836 10834 10833 10831 10830 10829 10827 10826 10825 10824 10823 10822 10820 10819 10817 10816 10814 10813 10811 10809 10807 10805 10803 10800 10798 10796 10794 10791 10789 10786 10784 10781 10779 10776 10774 10771 10768 10764 10761 10758 10755 10752 10748 10745 10742 10738 10733 10729 10725 10721 10717 10712 10707 10703 10698 10694 10689 10685 10680 10675 10669 10664 10659 10655 10652 10648 10645 10642 10639 10636 10633 10630 10627 10624 10622 10619 10618 10616 10615 10614
10841 10840 10838 10837 10835 10834 10832 10830 10829 10828 10826 10825 10824 10822 10821 10820 10819 10818 10817 10815 10814 10813 10811 10809 10807 10806 10804 10801 10799 10797 10795 10793 10790 10788 10785 10783 10780 10778 10776 10773 10771 10768 10765 10762 10759 10756 10753 10750 10747 10744 10740 10736 10733 10729 10725 10721 10717 10712 10708 10704 10699 10695 10692 10688 10683 10678 10673 10668 10663 10659 10656 10652 10649 10646 10642 10639 10635 10632 10629 10626 10623 10620 10618 10616 10614
10839 10837 10836 10834 10833 10831 10830 10828 10827 10825 10824 10823 10822 10820 10819 10817 10816 10815 10814 10813 10812 10811 10809 10807 10806 10804 10802 10800 10798 10796 10794 10792 10789 10787 10785 10782 10780 10777 10775 10773 10771 10769 10766 10763 10761 10758 10755 10752 10749 10746 10743 10739 10735 10732 10728 10725 10721 10717 10713 10709 10705 10701 10697 10694 10690 10686 10682 10677 10672 10668 10664 10660 10657 10653 10649 10646 10642 10638 10634 10631 10627 10624 10621 10618 10615
10835 10834 10833 10832 10830 10829 10827 10826 10824 10823 10821 10820 10819 10818 10817 10815 10814 10813 10812 10811 10810 10808 10807 10805 10804 10802 10800 10798 10797 10795 10793 10791 10788 10786 10784 10781 10779 10777 10775 10773 10771 10769 10766 10764 10762 10759 10756 10754 10751 10748 10745 10741 10738 10735 10732 10728 10725 10721 10718 10714 10710 10706 10702 10698 10695 10692 10688 10684 10680 10676 10672 10668 10665 10661 10658 10653 10649 10645 10641 10637 10633 10629 10625 10622 10618
10832 10831 10829 10828 10827 10826 10824 10823 10821 10820 10818 10817 10816 10815 10814 10813 10812 10811 10809 10808 10807 10806 10805 10803 10802 10800 10798 10796 10795 10793 10791 10789 10787 10785 10783 10781 10778 10776 10774 10772 10771 10769 10767 10764 10762 10760 10758 10755 10753 10750 10747 10743 10740 10738 10735 10732 10728 10725 10722 10718 10714 10710 10706 10703 10700 10697 10693 10690 10687 10682 10679 10675 10671 10668 10664 10660 10656 10651 10647 10643 10639 10635 10631 10627 10623
10827 10826 10825 10824 10823 10822 10820 10819 10818 10817 10815 10814 10813 10812 10811 10810 10809 10808 10807 10805 10804 10803 10802 10800 10799 10798 10796 10795 10793 10791 10789 10788 10786 10784 10782 10780 10778 10776 10774 10772 10770 10768 10767 10765 10763 10761 10759 10757 10754 10752 10749 10746 10743 10740 10737 10735 10732 10728 10725 10722 10718 10715 10711 10707 10704 10701 10698 10695 10692 10688 10685 10681 10677 10673 10670 10666 10662 10658 10654 10650 10646 10642 10638 10634 10629
10822 10821 10821 10820 10819 10817 10816 10815 10814 10812 10811 10810 10809 10808 10807 10807 10806 10805 10804 10803 10801 10800 10799 10797 10796 10795 10794 10793 10791 10789 10787 10786 10784 10783 10781 10779 10777 10775 10773 10771 10770 10768 10766 10765 10763 10761 10759 10758 10756 10753 10750 10748 10745 10742 10740 10737 10735 10732 10729 10726 10722 10719 10716 10712 10709 10706 10703 10700 10697 10694 10690 10686 10683 10679 10676 10673 10669 10665 10661 10657 10654 10650 10645 10641 10637
10817 10816 10815 10815 10814 10813 10812 10811 10810 10808 10807 10806 10806 10805 10804 10803 10802 10801 10801 10799 10798 10797 10796 10795 10793 10792 10792 10790 10789 10788 10786 10784 10782 10781 10780 10778 10777 10775 10773 10771 10769 10767 10766 10764 10763 10761 10760 10758 10756 10754 10752 10749 10747 10744 10742 10739 10737 10735 10732 10729 10726 10723 10720 10717 10714 10711 10708 10704 10701 10698 10695 10692 10689 10685 10682 10679 10675 10672 10668 10664 10660 10656 10652 10648 10644
10811 10811 10810 10809 10809 10808 10807 10806 10805 10804 10803 10802 10801 10801 10800 10799 10798 10798 10797 10796 10795 10794 10793 10792 10790 10789 10788 10788 10787 10786 10784 10782 10780 10778 10778 10777 10776 10774 10772 10771 10769 10767 10765 10764 10762 10761 10759 10758 10757 10755 10753 10751 10748 10746 10743 10741 10739 10737 10735 10732 10730 10727 10724 10721 10718 10715 10712 10709 10706 10703 10700 10697 10694 10691 10688 10685 10681 10678 10674 10670 10666 10662 10658 10654 10651
10806 10806 10805 10804 10803 10803 10802 10802 10801 10800 10799 10798 10797 10797 10796 10795 10794 10794 10793 10792 10791 10790 10789 10788 10787 10786 10785 10784 10784 10783 10782 10780 10779 10777 10776 10775 10774 10773 10771 10769 10768 10766 10765 10763 10762 10760 10759 10757 10756 10755 10754 10752 10749 10747 10745 10743 10741 10739 10737 10735 10732 10730 10727 10724 10721 10719 10716 10713 10710 10707 10704 10702 10699 10696 10693 10690 10686 10683 10680 10676 10673 10669 10665 10662 10658